ELY5108 UGTB-LLBG

Flight info

Callsign ELY5108
Flight time 2h 14m
Altitude 36000
Route ZAGOT DCT NOLGA UG261 TBN UW706 SIV UT284 EVKIT/N0464F370 UB545 VESAR/N0463F360 DCT EMEDA/N0463F370 DCT TUZIB DCT AZERE L189 ZUKKO
Aircraft B738/M-SDE2E3FGHIRWXY/LB1

Departure

Time 2026-05-04 11:51
Airport Tbilisi International Airport (UGTB)

Arrival

Time 2026-05-04 14:06
Airport Ben Gurion International Airport (LLBG)
Time Latitude Longitude Altitude Speed Heading
2026-05-04 11:20 41.66896 44.96344 1522 ft 0 kts 43°
2026-05-04 11:42 41.66895 44.96344 1522 ft 1 kts 43°
2026-05-04 11:42 41.66877 44.96321 1518 ft 4 kts 43°
2026-05-04 11:42 41.66860 44.96299 1519 ft 3 kts 43°
2026-05-04 11:42 41.66846 44.96274 1520 ft 4 kts 89°
2026-05-04 11:43 41.66855 44.96244 1518 ft 4 kts 132°
2026-05-04 11:43 41.66861 44.96234 1519 ft 1 kts 133°
2026-05-04 11:43 41.66862 44.96234 1519 ft 0 kts 133°
2026-05-04 11:47 41.66860 44.96237 1519 ft 4 kts 133°
2026-05-04 11:47 41.66815 44.96300 1524 ft 11 kts 133°
2026-05-04 11:47 41.66762 44.96377 1526 ft 11 kts 131°
2026-05-04 11:47 41.66698 44.96425 1526 ft 11 kts 163°
2026-05-04 11:48 41.66622 44.96409 1523 ft 15 kts 194°
2026-05-04 11:48 41.66509 44.96374 1525 ft 17 kts 192°
2026-05-04 11:48 41.66400 44.96340 1525 ft 16 kts 194°
2026-05-04 11:48 41.66294 44.96305 1518 ft 15 kts 191°
2026-05-04 11:49 41.66191 44.96309 1524 ft 15 kts 159°
2026-05-04 11:49 41.66108 44.96384 1525 ft 15 kts 134°
2026-05-04 11:49 41.66003 44.96517 1522 ft 23 kts 136°
2026-05-04 11:49 41.65881 44.96597 1525 ft 12 kts 190°
2026-05-04 11:50 41.65847 44.96537 1522 ft 10 kts 257°
2026-05-04 11:50 41.65855 44.96446 1523 ft 10 kts 298°
2026-05-04 11:50 41.65976 44.96290 1522 ft 60 kts 316°
2026-05-04 11:50 41.66493 44.95639 1522 ft 141 kts 317°
2026-05-04 11:51 41.67364 44.94562 1728 ft 193 kts 315°
2026-05-04 11:51 41.68422 44.93251 2422 ft 216 kts 316°
2026-05-04 11:51 41.69485 44.91918 3682 ft 204 kts 316°
2026-05-04 11:51 41.70498 44.90649 4823 ft 195 kts 317°
2026-05-04 11:52 41.71487 44.89408 5544 ft 206 kts 316°
2026-05-04 11:52 41.72610 44.88002 5767 ft 233 kts 316°
2026-05-04 11:52 41.73851 44.86446 6035 ft 255 kts 316°
2026-05-04 11:52 41.75188 44.84769 6435 ft 276 kts 316°
2026-05-04 11:53 41.76613 44.82983 7080 ft 285 kts 315°
2026-05-04 11:53 41.77790 44.80870 7866 ft 284 kts 287°
2026-05-04 11:53 41.78014 44.78291 8783 ft 279 kts 267°
2026-05-04 11:53 41.78009 44.75670 9591 ft 283 kts 267°
2026-05-04 11:55 41.78165 44.53778 12879 ft 371 kts 268°
2026-05-04 11:55 41.78198 44.50302 13564 ft 374 kts 268°
2026-05-04 11:56 41.78233 44.46805 14182 ft 376 kts 267°
2026-05-04 11:56 41.78267 44.43299 14797 ft 379 kts 268°
2026-05-04 11:56 41.78299 44.39740 15361 ft 384 kts 267°
2026-05-04 11:56 41.78330 44.36163 15986 ft 388 kts 268°
2026-05-04 11:57 41.78360 44.32522 16629 ft 389 kts 267°
2026-05-04 11:57 41.78390 44.28884 17273 ft 392 kts 267°
2026-05-04 11:57 41.78418 44.25223 17837 ft 395 kts 267°
2026-05-04 11:57 41.78446 44.21523 18351 ft 399 kts 267°
2026-05-04 11:58 41.78472 44.17783 18875 ft 402 kts 267°
2026-05-04 11:58 41.78478 44.15308 19221 ft 403 kts 265°
2026-05-04 11:58 41.78020 44.11639 19716 ft 399 kts 247°
2026-05-04 11:58 41.76960 44.08198 20258 ft 399 kts 244°
2026-05-04 11:59 41.75877 44.04751 20770 ft 401 kts 245°
2026-05-04 11:59 41.74800 44.01292 21167 ft 404 kts 245°
2026-05-04 11:59 41.73383 43.96695 21759 ft 408 kts 245°
2026-05-04 11:59 41.72644 43.94284 22123 ft 409 kts 245°
2026-05-04 12:00 41.71563 43.90746 22615 ft 411 kts 245°
2026-05-04 12:00 41.70480 43.87198 23079 ft 413 kts 245°
2026-05-04 12:00 41.69391 43.83629 23511 ft 416 kts 245°
2026-05-04 12:00 41.68307 43.80081 23874 ft 418 kts 245°
2026-05-04 12:01 41.67207 43.76481 24249 ft 419 kts 244°
2026-05-04 12:01 41.66099 43.72864 24646 ft 420 kts 244°
2026-05-04 12:02 41.59348 43.50928 26707 ft 430 kts 244°
2026-05-04 12:03 41.58205 43.47231 27034 ft 431 kts 244°
2026-05-04 12:03 41.57059 43.43531 27350 ft 433 kts 244°
2026-05-04 12:03 41.55903 43.39805 27654 ft 434 kts 244°
2026-05-04 12:03 41.54748 43.36084 28020 ft 434 kts 244°
2026-05-04 12:04 41.53591 43.32363 28499 ft 431 kts 244°
2026-05-04 12:04 41.52443 43.28671 29051 ft 428 kts 243°
2026-05-04 12:04 41.51308 43.25028 29581 ft 424 kts 243°
2026-05-04 12:04 41.50174 43.21396 30010 ft 422 kts 243°
2026-05-04 12:05 41.49046 43.17790 30310 ft 421 kts 243°
2026-05-04 12:05 41.47915 43.14180 30575 ft 422 kts 243°
2026-05-04 12:05 41.46781 43.10564 30871 ft 422 kts 243°
2026-05-04 12:05 41.45660 43.06991 31072 ft 425 kts 243°
2026-05-04 12:06 41.44512 43.03342 31252 ft 427 kts 243°
2026-05-04 12:06 41.43377 42.99690 31569 ft 427 kts 245°
2026-05-04 12:06 41.42498 42.95895 31938 ft 430 kts 253°
2026-05-04 12:06 41.41999 42.91956 32311 ft 430 kts 256°
2026-05-04 12:07 41.41549 42.88025 32601 ft 430 kts 256°
2026-05-04 12:07 41.41093 42.84071 32778 ft 432 kts 256°
2026-05-04 12:07 41.40627 42.80103 33035 ft 433 kts 256°
2026-05-04 12:07 41.40156 42.76150 33363 ft 431 kts 256°
2026-05-04 12:08 41.39680 42.72211 33732 ft 430 kts 256°
2026-05-04 12:08 41.39199 42.68270 33911 ft 431 kts 255°
2026-05-04 12:08 41.38719 42.64372 34035 ft 433 kts 255°
2026-05-04 12:08 41.38227 42.60394 34229 ft 433 kts 256°
2026-05-04 12:09 41.37737 42.56436 34494 ft 432 kts 255°
2026-05-04 12:09 41.37248 42.52490 34685 ft 432 kts 255°
2026-05-04 12:09 41.36755 42.48530 34884 ft 433 kts 255°
2026-05-04 12:09 41.36261 42.44570 35116 ft 433 kts 255°
2026-05-04 12:10 41.35262 42.36614 35344 ft 438 kts 255°
2026-05-04 12:10 41.34760 42.32619 35605 ft 437 kts 255°
2026-05-04 12:10 41.34257 42.28629 35789 ft 438 kts 255°
2026-05-04 12:11 41.33241 42.20619 35815 ft 443 kts 255°
2026-05-04 12:11 41.32216 42.12561 35802 ft 438 kts 255°
2026-05-04 12:12 41.31195 42.04589 35823 ft 437 kts 255°
2026-05-04 12:12 41.30172 41.96652 35838 ft 436 kts 255°
2026-05-04 12:14 41.25913 41.64616 35868 ft 446 kts 255°
2026-05-04 12:15 41.24818 41.56476 35870 ft 448 kts 255°
2026-05-04 12:15 41.23714 41.48314 35879 ft 449 kts 254°
2026-05-04 12:16 41.22604 41.40151 35857 ft 447 kts 254°
2026-05-04 12:16 41.21502 41.32089 35870 ft 446 kts 254°
2026-05-04 12:17 41.20390 41.24009 35881 ft 445 kts 254°
2026-05-04 12:17 41.19272 41.15936 35903 ft 445 kts 254°
2026-05-04 12:18 41.18148 41.07854 35894 ft 445 kts 254°
2026-05-04 12:18 41.17019 40.99779 35892 ft 445 kts 254°
2026-05-04 12:19 41.15882 40.91702 35883 ft 445 kts 254°
2026-05-04 12:19 41.14746 40.83665 35879 ft 446 kts 254°
2026-05-04 12:20 41.13596 40.75566 35909 ft 447 kts 254°
2026-05-04 12:20 41.12436 40.67453 35902 ft 448 kts 254°
2026-05-04 12:21 41.11268 40.59317 35891 ft 449 kts 255°
2026-05-04 12:21 41.10098 40.51209 35876 ft 450 kts 254°
2026-05-04 12:22 41.08907 40.42998 35868 ft 451 kts 254°
2026-05-04 12:22 41.07714 40.34820 35864 ft 452 kts 254°
2026-05-04 12:23 41.06515 40.26644 35862 ft 453 kts 254°
2026-05-04 12:23 41.05315 40.18500 35851 ft 453 kts 254°
2026-05-04 12:24 41.04101 40.10300 35874 ft 453 kts 254°
2026-05-04 12:24 41.02881 40.02107 35882 ft 454 kts 255°
2026-05-04 12:25 41.01654 39.93901 35865 ft 455 kts 255°
2026-05-04 12:25 41.00419 39.85684 35862 ft 455 kts 255°
2026-05-04 12:26 40.98801 39.77638 35855 ft 449 kts 242°
2026-05-04 12:26 40.95960 39.70335 35856 ft 446 kts 238°
2026-05-04 12:27 40.93038 39.63090 35849 ft 447 kts 239°
2026-05-04 12:27 40.90151 39.55843 35842 ft 447 kts 239°
2026-05-04 12:28 40.87267 39.48553 35832 ft 448 kts 239°
2026-05-04 12:28 40.84386 39.41273 35837 ft 447 kts 239°
2026-05-04 12:29 40.81488 39.33975 35808 ft 447 kts 239°
2026-05-04 12:29 40.78595 39.26705 35810 ft 448 kts 239°
2026-05-04 12:30 40.75726 39.19516 35796 ft 448 kts 239°
2026-05-04 12:30 40.72810 39.12226 35798 ft 450 kts 239°
2026-05-04 12:31 40.69875 39.04905 35806 ft 451 kts 239°
2026-05-04 12:31 40.66933 38.97584 35797 ft 452 kts 239°
2026-05-04 12:32 40.62505 38.86610 35818 ft 453 kts 239°
2026-05-04 12:33 40.59531 38.79293 35813 ft 454 kts 239°
2026-05-04 12:33 40.56542 38.71955 35814 ft 454 kts 239°
2026-05-04 12:34 40.53576 38.64682 35807 ft 454 kts 239°
2026-05-04 12:34 40.50586 38.57369 35807 ft 452 kts 239°
2026-05-04 12:35 40.47547 38.50169 35807 ft 449 kts 238°
2026-05-04 12:35 40.44490 38.43054 35806 ft 446 kts 237°
2026-05-04 12:36 40.41452 38.35963 35795 ft 445 kts 238°
2026-05-04 12:36 40.38418 38.28878 35796 ft 444 kts 238°
2026-05-04 12:37 40.35506 38.21782 35786 ft 445 kts 240°
2026-05-04 12:37 40.32634 38.14590 35778 ft 445 kts 239°
2026-05-04 12:38 40.29658 38.07483 35771 ft 445 kts 239°
2026-05-04 12:38 40.26626 38.00395 35771 ft 447 kts 238°
2026-05-04 12:39 40.23584 37.93268 35776 ft 448 kts 239°
2026-05-04 12:39 40.20552 37.86151 35798 ft 448 kts 239°
2026-05-04 12:40 40.17512 37.79025 35786 ft 447 kts 238°
2026-05-04 12:40 40.14991 37.73130 35780 ft 446 kts 238°
2026-05-04 12:41 40.11968 37.66072 35784 ft 444 kts 238°
2026-05-04 12:41 40.08954 37.59056 35789 ft 442 kts 238°
2026-05-04 12:42 40.05954 37.52060 35795 ft 440 kts 238°
2026-05-04 12:42 40.02968 37.45068 35790 ft 440 kts 238°
2026-05-04 12:43 39.99982 37.38090 35810 ft 440 kts 238°
2026-05-04 12:43 39.96993 37.31126 35803 ft 440 kts 239°
2026-05-04 12:44 39.93995 37.24157 35803 ft 441 kts 238°
2026-05-04 12:44 39.91003 37.17218 35806 ft 442 kts 238°
2026-05-04 12:45 39.87969 37.10199 35802 ft 444 kts 239°
2026-05-04 12:45 39.84928 37.03176 35814 ft 445 kts 239°
2026-05-04 12:46 39.81878 36.96146 35798 ft 446 kts 239°
2026-05-04 12:46 39.78413 36.89483 35813 ft 444 kts 226°
2026-05-04 12:47 39.73774 36.84293 35813 ft 443 kts 216°
2026-05-04 12:47 39.68747 36.79629 35801 ft 444 kts 215°
2026-05-04 12:48 39.63721 36.74964 35798 ft 445 kts 216°
2026-05-04 12:48 39.58691 36.70258 35804 ft 445 kts 216°
2026-05-04 12:49 39.53667 36.65544 35798 ft 445 kts 216°
2026-05-04 12:49 39.48679 36.60867 35804 ft 445 kts 216°
2026-05-04 12:50 39.43663 36.56174 35790 ft 445 kts 216°
2026-05-04 12:50 39.38641 36.51484 35791 ft 444 kts 216°
2026-05-04 12:51 39.33629 36.46812 35781 ft 444 kts 216°
2026-05-04 12:51 39.28614 36.42146 35791 ft 444 kts 216°
2026-05-04 12:52 39.23604 36.37493 35781 ft 444 kts 216°
2026-05-04 12:52 39.18594 36.32849 35787 ft 444 kts 216°
2026-05-04 12:53 39.13593 36.28221 35781 ft 444 kts 216°
2026-05-04 12:53 39.08570 36.23580 35782 ft 445 kts 216°
2026-05-04 12:54 39.03528 36.18931 35783 ft 445 kts 216°
2026-05-04 12:54 38.98488 36.14293 35781 ft 445 kts 216°
2026-05-04 12:55 38.93449 36.09662 35777 ft 446 kts 216°
2026-05-04 12:55 38.88401 36.05033 35772 ft 445 kts 216°
2026-05-04 12:56 38.83368 36.00425 35772 ft 444 kts 216°
2026-05-04 12:56 38.78363 35.95851 35777 ft 444 kts 216°
2026-05-04 12:57 38.73324 35.91254 35769 ft 443 kts 216°
2026-05-04 12:57 38.68300 35.86678 35783 ft 442 kts 216°
2026-05-04 12:58 38.63283 35.82117 35769 ft 442 kts 216°
2026-05-04 12:58 38.58260 35.77558 35782 ft 442 kts 216°
2026-05-04 12:59 38.53248 35.73018 35791 ft 442 kts 216°
2026-05-04 12:59 38.48223 35.68473 35779 ft 443 kts 216°
2026-05-04 13:00 38.43225 35.63960 35787 ft 443 kts 216°
2026-05-04 13:00 38.38193 35.59424 35798 ft 443 kts 216°
2026-05-04 13:01 38.33153 35.54888 35789 ft 443 kts 216°
2026-05-04 13:01 38.28109 35.50363 35802 ft 443 kts 216°
2026-05-04 13:02 38.23054 35.45843 35812 ft 444 kts 216°
2026-05-04 13:02 38.17998 35.41328 35821 ft 444 kts 216°
2026-05-04 13:03 38.12935 35.36813 35829 ft 445 kts 216°
2026-05-04 13:03 38.07873 35.32306 35815 ft 445 kts 216°
2026-05-04 13:04 38.02828 35.27822 35831 ft 444 kts 217°
2026-05-04 13:04 37.97776 35.23340 35842 ft 444 kts 217°
2026-05-04 13:05 37.92697 35.18841 35854 ft 443 kts 217°
2026-05-04 13:05 37.87643 35.14371 35841 ft 443 kts 217°
2026-05-04 13:06 37.82588 35.09909 35856 ft 443 kts 217°
2026-05-04 13:06 37.77529 35.05450 35850 ft 443 kts 217°
2026-05-04 13:07 37.72461 35.00992 35848 ft 442 kts 217°
2026-05-04 13:07 37.67449 34.96590 35853 ft 441 kts 217°
2026-05-04 13:08 37.62410 34.92172 35856 ft 441 kts 217°
2026-05-04 13:08 37.57374 34.87763 35853 ft 439 kts 217°
2026-05-04 13:09 37.52354 34.83377 35843 ft 439 kts 217°
2026-05-04 13:09 37.47344 34.79005 35845 ft 439 kts 217°
2026-05-04 13:10 37.42309 34.74620 35817 ft 438 kts 217°
2026-05-04 13:10 37.37301 34.70266 35821 ft 437 kts 217°
2026-05-04 13:11 37.32294 34.65919 35835 ft 437 kts 217°
2026-05-04 13:11 37.27267 34.61561 35866 ft 442 kts 217°
2026-05-04 13:11 37.24739 34.59372 36054 ft 442 kts 217°
2026-05-04 13:12 37.22204 34.57180 36305 ft 440 kts 217°
2026-05-04 13:12 37.19684 34.55004 36508 ft 439 kts 217°
2026-05-04 13:12 37.17162 34.52826 36629 ft 441 kts 217°
2026-05-04 13:12 37.14635 34.50646 36762 ft 439 kts 217°
2026-05-04 13:13 37.12156 34.48509 36795 ft 438 kts 217°
2026-05-04 13:13 37.07120 34.44173 36204 ft 441 kts 215°
2026-05-04 13:13 37.04801 34.42177 36443 ft 436 kts 214°
2026-05-04 13:14 37.02340 34.40065 36648 ft 420 kts 215°
2026-05-04 13:14 36.99975 34.38036 37267 ft 400 kts 216°
2026-05-04 13:14 36.97673 34.36062 37037 ft 405 kts 217°
2026-05-04 13:14 36.95346 34.34064 36598 ft 403 kts 215°
2026-05-04 13:15 36.93039 34.32087 36526 ft 405 kts 214°
2026-05-04 13:15 36.90842 34.30206 37152 ft 409 kts 217°
2026-05-04 13:15 36.88478 34.28181 36970 ft 417 kts 217°
2026-05-04 13:16 36.83619 34.24027 36845 ft 428 kts 218°
2026-05-04 13:16 36.78660 34.19797 36804 ft 436 kts 217°
2026-05-04 13:17 36.73587 34.15476 36791 ft 443 kts 217°
2026-05-04 13:17 36.68455 34.11113 36770 ft 448 kts 217°
2026-05-04 13:18 36.63298 34.06870 36771 ft 441 kts 211°
2026-05-04 13:18 36.57496 34.04433 36797 ft 445 kts 195°
2026-05-04 13:19 36.51303 34.03848 36797 ft 451 kts 186°
2026-05-04 13:19 36.45024 34.03671 36790 ft 452 kts 186°
2026-05-04 13:20 36.38734 34.03461 36788 ft 452 kts 187°
2026-05-04 13:20 36.32448 34.03219 36795 ft 452 kts 187°
2026-05-04 13:21 36.26150 34.02967 36791 ft 452 kts 187°
2026-05-04 13:21 36.19856 34.02716 36798 ft 452 kts 187°
2026-05-04 13:22 36.13564 34.02466 36798 ft 452 kts 187°
2026-05-04 13:22 36.07330 34.02220 36791 ft 452 kts 187°
2026-05-04 13:23 36.00993 34.01970 36793 ft 451 kts 187°
2026-05-04 13:23 35.95776 34.01765 36801 ft 451 kts 187°
2026-05-04 13:24 35.88512 34.01274 36782 ft 447 kts 192°
2026-05-04 13:24 35.82349 34.00322 36800 ft 446 kts 193°
2026-05-04 13:25 35.74119 33.98986 36809 ft 446 kts 193°
2026-05-04 13:25 35.67948 33.98035 36794 ft 446 kts 193°
2026-05-04 13:26 35.61823 33.97113 36801 ft 446 kts 193°
2026-05-04 13:26 35.55670 33.96192 36805 ft 445 kts 193°
2026-05-04 13:27 35.49521 33.95273 36839 ft 445 kts 193°
2026-05-04 13:27 35.43374 33.94353 36832 ft 446 kts 193°
2026-05-04 13:28 35.37198 33.93431 36810 ft 447 kts 193°
2026-05-04 13:28 35.31033 33.92512 36833 ft 447 kts 193°
2026-05-04 13:29 35.24831 33.91589 36825 ft 448 kts 193°
2026-05-04 13:29 35.18656 33.90672 36818 ft 448 kts 193°
2026-05-04 13:30 35.12464 33.89753 36843 ft 448 kts 193°
2026-05-04 13:30 35.06285 33.88839 36837 ft 447 kts 193°
2026-05-04 13:31 35.00102 33.87925 36832 ft 447 kts 193°
2026-05-04 13:31 34.93939 33.87015 36835 ft 446 kts 193°
2026-05-04 13:32 34.87833 33.86115 36826 ft 444 kts 194°
2026-05-04 13:32 34.81708 33.85213 36837 ft 442 kts 194°
2026-05-04 13:33 34.75620 33.84318 36843 ft 440 kts 194°
2026-05-04 13:33 34.69556 33.83428 36849 ft 438 kts 194°
2026-05-04 13:34 34.63522 33.82543 36849 ft 435 kts 195°
2026-05-04 13:34 34.57520 33.81664 36860 ft 434 kts 195°
2026-05-04 13:35 34.48537 33.80385 36838 ft 435 kts 192°
2026-05-04 13:36 34.42441 33.80650 36871 ft 444 kts 185°
2026-05-04 13:36 34.36288 33.81194 36891 ft 443 kts 185°
2026-05-04 13:37 34.30120 33.81703 36893 ft 444 kts 185°
2026-05-04 13:37 34.23955 33.82184 36877 ft 444 kts 186°
2026-05-04 13:38 34.17799 33.82658 36887 ft 444 kts 186°
2026-05-04 13:38 34.11609 33.83135 36900 ft 445 kts 186°
2026-05-04 13:39 34.05418 33.83613 36896 ft 446 kts 186°
2026-05-04 13:39 33.99227 33.84093 36892 ft 445 kts 186°
2026-05-04 13:40 33.93065 33.84572 36907 ft 445 kts 186°
2026-05-04 13:40 33.86876 33.85053 36905 ft 446 kts 186°
2026-05-04 13:41 33.80651 33.85532 36299 ft 452 kts 186°
2026-05-04 13:41 33.77524 33.85776 35775 ft 448 kts 187°
2026-05-04 13:41 33.74412 33.86020 35135 ft 449 kts 187°
2026-05-04 13:42 33.68174 33.86502 33756 ft 451 kts 187°
2026-05-04 13:42 33.65028 33.86742 32917 ft 454 kts 187°
2026-05-04 13:42 33.61876 33.86986 32181 ft 453 kts 187°
2026-05-04 13:42 33.58730 33.87230 31408 ft 453 kts 187°
2026-05-04 13:43 33.55609 33.87476 30941 ft 447 kts 188°
2026-05-04 13:43 33.52515 33.87721 30419 ft 442 kts 188°
2026-05-04 13:43 33.49458 33.87961 29899 ft 437 kts 188°
2026-05-04 13:43 33.46446 33.88194 29315 ft 432 kts 188°
2026-05-04 13:44 33.43456 33.88424 28765 ft 427 kts 188°
2026-05-04 13:44 33.40515 33.88650 28266 ft 421 kts 188°
2026-05-04 13:44 33.37608 33.88872 27761 ft 416 kts 188°
2026-05-04 13:44 33.34736 33.89091 27249 ft 411 kts 188°
2026-05-04 13:45 33.31890 33.89307 26751 ft 407 kts 188°
2026-05-04 13:45 33.29102 33.89519 26267 ft 403 kts 188°
2026-05-04 13:45 33.26281 33.89732 25775 ft 400 kts 188°
2026-05-04 13:45 33.23520 33.89942 25293 ft 397 kts 188°
2026-05-04 13:46 33.20775 33.90152 24815 ft 394 kts 188°
2026-05-04 13:46 33.18048 33.90358 24282 ft 393 kts 188°
2026-05-04 13:46 33.15329 33.90559 23783 ft 391 kts 188°
2026-05-04 13:46 33.12606 33.90760 23204 ft 389 kts 188°
2026-05-04 13:47 33.09917 33.90960 22701 ft 386 kts 188°
2026-05-04 13:47 33.07239 33.91247 22083 ft 392 kts 181°
2026-05-04 13:47 33.04548 33.92153 21317 ft 411 kts 168°
2026-05-04 13:47 33.01936 33.93636 20778 ft 418 kts 159°
2026-05-04 13:48 32.99539 33.95566 20339 ft 421 kts 151°
2026-05-04 13:48 32.97224 33.97652 19925 ft 415 kts 150°
2026-05-04 13:48 32.94928 33.99739 19481 ft 411 kts 150°
2026-05-04 13:48 32.92665 34.01790 19012 ft 408 kts 150°
2026-05-04 13:49 32.90408 34.03823 18562 ft 405 kts 150°
2026-05-04 13:49 32.88165 34.05832 18103 ft 401 kts 150°
2026-05-04 13:49 32.85945 34.07812 17558 ft 398 kts 151°
2026-05-04 13:49 32.83723 34.09788 16957 ft 397 kts 151°
2026-05-04 13:50 32.81517 34.11745 16491 ft 394 kts 150°
2026-05-04 13:50 32.79335 34.13682 16042 ft 389 kts 150°
2026-05-04 13:50 32.77174 34.15598 15631 ft 385 kts 150°
2026-05-04 13:50 32.75029 34.17498 15188 ft 382 kts 150°
2026-05-04 13:51 32.72937 34.19349 14741 ft 378 kts 149°
2026-05-04 13:51 32.70839 34.21205 14314 ft 375 kts 149°
2026-05-04 13:51 32.68751 34.23051 13883 ft 372 kts 149°
2026-05-04 13:51 32.66686 34.24875 13440 ft 368 kts 149°
2026-05-04 13:52 32.62604 34.28479 12443 ft 364 kts 149°
2026-05-04 13:52 32.60580 34.30265 11950 ft 363 kts 149°
2026-05-04 13:52 32.58556 34.32048 11484 ft 361 kts 149°
2026-05-04 13:53 32.56546 34.33819 11050 ft 358 kts 149°
2026-05-04 13:53 32.54570 34.35562 10806 ft 349 kts 148°
2026-05-04 13:53 32.52654 34.37253 10702 ft 337 kts 149°
2026-05-04 13:54 32.49018 34.40457 10533 ft 314 kts 149°
2026-05-04 13:54 32.47291 34.41975 10447 ft 304 kts 149°
2026-05-04 13:54 32.43947 34.44906 9986 ft 298 kts 149°
2026-05-04 13:55 32.42269 34.46374 9565 ft 301 kts 149°
2026-05-04 13:55 32.38862 34.49357 8639 ft 307 kts 148°
2026-05-04 13:55 32.37138 34.50869 8268 ft 307 kts 148°
2026-05-04 13:56 32.35523 34.52524 7939 ft 312 kts 131°
2026-05-04 13:56 32.34513 34.54777 7746 ft 310 kts 116°
2026-05-04 13:56 32.32869 34.59427 7270 ft 302 kts 116°
2026-05-04 13:57 32.32075 34.61666 7047 ft 297 kts 116°
2026-05-04 13:57 32.31274 34.63901 6817 ft 293 kts 117°
2026-05-04 13:58 32.28912 34.70416 6175 ft 283 kts 117°
2026-05-04 13:58 32.27361 34.74672 5770 ft 281 kts 117°
2026-05-04 13:58 32.26585 34.76796 5570 ft 281 kts 117°
2026-05-04 13:59 32.25810 34.78918 5362 ft 280 kts 117°
2026-05-04 13:59 32.25079 34.81049 5151 ft 281 kts 112°
2026-05-04 13:59 32.23966 34.85481 4717 ft 278 kts 110°
2026-05-04 14:00 32.23422 34.87647 4528 ft 274 kts 110°
2026-05-04 14:00 32.22324 34.91915 4110 ft 266 kts 110°
2026-05-04 14:00 32.21795 34.93954 3893 ft 260 kts 110°
2026-05-04 14:01 32.21265 34.95990 3688 ft 252 kts 110°
2026-05-04 14:01 32.20555 34.97804 3490 ft 235 kts 138°
2026-05-04 14:01 32.17844 34.99198 3202 ft 210 kts 187°
2026-05-04 14:02 32.16397 34.99091 3069 ft 208 kts 191°
2026-05-04 14:02 32.15008 34.98744 2906 ft 198 kts 214°
2026-05-04 14:02 32.13902 34.97811 2800 ft 198 kts 217°
2026-05-04 14:02 32.12672 34.97011 2601 ft 204 kts 212°
2026-05-04 14:03 32.11438 34.96235 2328 ft 204 kts 213°
2026-05-04 14:03 32.10186 34.95429 2078 ft 199 kts 214°
2026-05-04 14:03 32.09017 34.94675 1814 ft 190 kts 215°
2026-05-04 14:03 32.07875 34.93936 1492 ft 185 kts 215°
2026-05-04 14:04 32.05660 34.92531 950 ft 155 kts 209°
2026-05-04 14:04 32.04774 34.92007 945 ft 137 kts 215°
2026-05-04 14:04 32.03914 34.91435 766 ft 145 kts 216°
2026-05-04 14:05 32.02298 34.90367 299 ft 128 kts 218°
2026-05-04 14:05 32.01532 34.89849 137 ft 125 kts 217°
2026-05-04 14:05 32.00883 34.89418 120 ft 83 kts 208°
2026-05-04 14:06 32.00556 34.89209 117 ft 20 kts 210°
2026-05-04 14:06 32.00438 34.89127 116 ft 21 kts 212°
2026-05-04 14:06 32.00312 34.89044 118 ft 21 kts 214°
2026-05-04 14:06 32.00204 34.88937 116 ft 20 kts 229°
2026-05-04 14:07 32.00125 34.88805 117 ft 19 kts 240°
2026-05-04 14:07 32.00087 34.88725 117 ft 11 kts 253°
2026-05-04 14:07 32.00095 34.88643 116 ft 10 kts 295°
2026-05-04 14:07 32.00129 34.88574 118 ft 18 kts 306°
2026-05-04 14:08 32.00196 34.88450 117 ft 18 kts 301°
2026-05-04 14:08 32.00259 34.88328 117 ft 17 kts 300°
2026-05-04 14:08 32.00322 34.88210 118 ft 16 kts 301°
2026-05-04 14:08 32.00380 34.88097 116 ft 16 kts 300°
2026-05-04 14:09 32.00437 34.87917 115 ft 9 kts 231°
2026-05-04 14:09 32.00386 34.87873 118 ft 9 kts 212°
2026-05-04 14:10 32.00277 34.87838 119 ft 9 kts 132°
2026-05-04 14:10 32.00261 34.87866 116 ft 8 kts 122°
2026-05-04 14:10 32.00254 34.87881 119 ft 0 kts 121°
2026-05-04 14:10 32.00253 34.87882 119 ft 0 kts 121°